TimeEST,TemperatureF,Dew PointF,Humidity,Sea Level PressureIn,VisibilityMPH,Wind Direction,Wind SpeedMPH,Gust SpeedMPH,PrecipitationIn,Events,Conditions,WindDirDegrees,DateUTC
12:51 AM,42.1,34.0,73,30.48,10.0,North,8.1,-,N/A,,Clear,10,2013-11-29 05:51:00
1:51 AM,43.0,35.1,74,30.47,10.0,North,5.8,-,N/A,,Clear,10,2013-11-29 06:51:00
2:51 AM,43.0,35.1,74,30.48,10.0,Variable,5.8,-,N/A,,Clear,0,2013-11-29 07:51:00
3:51 AM,43.0,34.0,71,30.48,10.0,North,9.2,-,N/A,,Clear,10,2013-11-29 08:51:00
4:51 AM,44.1,34.0,68,30.48,10.0,NNE,6.9,-,N/A,,Mostly Cloudy,20,2013-11-29 09:51:00
5:51 AM,44.1,32.0,63,30.49,10.0,Variable,5.8,-,N/A,,Overcast,0,2013-11-29 10:51:00
6:51 AM,44.1,28.9,55,30.51,10.0,North,5.8,-,N/A,,Mostly Cloudy,10,2013-11-29 11:51:00
7:51 AM,45.0,28.9,53,30.52,10.0,North,6.9,-,N/A,,Overcast,10,2013-11-29 12:51:00
8:51 AM,46.9,30.0,52,30.54,10.0,Variable,5.8,-,N/A,,Partly Cloudy,0,2013-11-29 13:51:00
9:51 AM,48.0,30.9,52,30.55,10.0,NNE,9.2,-,N/A,,Clear,20,2013-11-29 14:51:00
10:51 AM,48.9,30.0,48,30.54,10.0,North,10.4,17.3,N/A,,Clear,10,2013-11-29 15:51:00
11:51 AM,48.9,33.1,54,30.53,10.0,North,10.4,19.6,N/A,,Clear,10,2013-11-29 16:51:00
12:51 PM,48.9,34.0,56,30.52,10.0,NNE,10.4,19.6,N/A,,Clear,20,2013-11-29 17:51:00
1:51 PM,50.0,34.0,54,30.51,10.0,NNE,10.4,18.4,N/A,,Clear,30,2013-11-29 18:51:00
2:51 PM,48.9,35.1,59,30.51,10.0,NNE,9.2,19.6,N/A,,Clear,30,2013-11-29 19:51:00
3:51 PM,48.0,35.1,61,30.53,10.0,NNE,8.1,-,N/A,,Clear,30,2013-11-29 20:51:00
4:51 PM,46.0,34.0,63,30.54,10.0,NNE,11.5,19.6,N/A,,Clear,20,2013-11-29 21:51:00
5:51 PM,45.0,37.0,74,30.55,10.0,NNE,11.5,23.0,N/A,,Clear,20,2013-11-29 22:51:00
6:51 PM,45.0,35.1,68,30.56,10.0,NNE,9.2,19.6,N/A,,Clear,30,2013-11-29 23:51:00
7:51 PM,46.0,34.0,63,30.57,10.0,NNE,9.2,17.3,N/A,,Clear,30,2013-11-30 00:51:00
8:51 PM,46.0,36.0,68,30.58,10.0,NNE,8.1,20.7,N/A,,Clear,20,2013-11-30 01:51:00
9:51 PM,46.0,36.0,68,30.57,10.0,NNE,9.2,19.6,N/A,,Clear,20,2013-11-30 02:51:00
10:51 PM,46.9,37.0,68,30.57,10.0,NNE,9.2,20.7,N/A,,Clear,20,2013-11-30 03:51:00
11:51 PM,46.9,39.0,74,30.56,10.0,NNE,8.1,19.6,N/A,,Clear,30,2013-11-30 04:51:00